West Bend, WI

4:36 PM CST on November 21, 2019 (GMT -0600)
West Bend Municipal

Weather History for KETB - August, 2019

Change the Weather History Date:

Monday, August 26, 2019

  Actual Average Record
Temperature  
Mean Temperature 64 °F -  
Max Temperature 68 °F 79 °F 96 °F (1948)
Min Temperature 60 °F 58 °F 42 °F (1927)
Degree Days  
Heating Degree Days 1    
Growing Degree Days 14 (Base 50)    
Moisture  
Dew Point 65 °F    
Average Humidity 99    
Maximum Humidity 100    
Minimum Humidity 94    
Precipitation  
Precipitation 1.25 in - - ()
Sea Level Pressure  
Sea Level Pressure 29.80 in    
Wind  
Wind Speed 4 mph (ESE)    
Max Wind Speed 13 mph    
Max Gust Speed 20 mph    
Visibility 8 miles    
Events Rain    
Averages and records for this station are not official NWS values.
T = Trace of Precipitation, MM = Missing Value Source: NWS Daily Summary

Daily Weather History Graph

Daily Weather History Graph

Search for Another Location

Airport or City:

Astronomy

Aug. 26, 2019 Rise Set
Actual Time 6:09 AM CDT 7:38 PM CDT
Civil Twilight 5:39 AM CDT 8:08 PM CDT
Nautical Twilight 5:03 AM CDT 8:44 PM CDT
Astronomical Twilight 4:24 AM CDT 9:22 PM CDT
Moon 1:28 AM CDT (8/26) 5:08 PM CDT (8/26)
Length of Visible Light 14h 28m
Length of Day
13h 28m
Waning Crescent, 19% of the Moon is Illuminated
Aug 26
Waning Crescent
Aug 30
New
Sep 5
First Quarter
Sep 13
Full
Sep 21
Last Quarter

Hourly Weather History & Observations

Time (CDT) Temp. Dew Point Humidity Pressure Visibility Wind Dir Wind Speed Gust Speed Precip Events Conditions
12:15 AM 60.8 °F 60.8 °F 100% 30.00 in 10.0 mi ENE 3.5 mph - N/A   Overcast
12:35 AM 62.6 °F 60.8 °F 94% 29.99 in 10.0 mi Calm Calm - N/A   Light Drizzle
12:55 AM 62.6 °F 62.6 °F 100% 29.99 in 10.0 mi Calm Calm - N/A Rain Light Rain
1:15 AM 62.6 °F 62.6 °F 100% 29.99 in 10.0 mi Calm Calm - 0.01 in Rain Light Rain
1:35 AM 62.6 °F 62.6 °F 100% 29.98 in 10.0 mi Calm Calm - 0.01 in Rain Light Rain
1:55 AM 62.6 °F 62.6 °F 100% 29.98 in 10.0 mi Calm Calm - 0.01 in   Overcast
2:15 AM 62.6 °F 62.6 °F 100% 29.98 in 7.0 mi Calm Calm - 0.02 in Rain Rain
2:35 AM 62.6 °F 62.6 °F 100% 29.97 in 10.0 mi Calm Calm - 0.04 in Rain Light Rain
2:55 AM 62.6 °F 62.6 °F 100% 29.96 in 10.0 mi Calm Calm - 0.04 in   Overcast
3:15 AM 62.6 °F 62.6 °F 100% 29.95 in 10.0 mi Calm Calm - N/A   Overcast
3:35 AM 62.6 °F 62.6 °F 100% 29.95 in 10.0 mi Calm Calm - N/A   Overcast
3:55 AM 62.6 °F 62.6 °F 100% 29.94 in 10.0 mi ENE 3.5 mph - N/A   Overcast
4:15 AM 62.6 °F 62.6 °F 100% 29.94 in 10.0 mi ENE 3.5 mph - N/A   Overcast
4:35 AM 62.6 °F 62.6 °F 100% 29.94 in 10.0 mi Calm Calm - N/A Rain Rain
5:15 AM 62.6 °F 62.6 °F 100% 29.92 in 10.0 mi East 3.5 mph - N/A   Overcast
5:35 AM 62.6 °F 62.6 °F 100% 29.92 in 10.0 mi East 3.5 mph - N/A   Overcast
5:55 AM 62.6 °F 62.6 °F 100% 29.92 in 10.0 mi ESE 4.6 mph - N/A   Overcast
6:15 AM 62.6 °F 62.6 °F 100% 29.91 in 10.0 mi ESE 4.6 mph - N/A Rain Light Rain
6:35 AM 64.4 °F 62.6 °F 94% 29.91 in 10.0 mi East 5.8 mph - N/A   Light Drizzle
6:55 AM 62.6 °F 62.6 °F 100% 29.90 in 10.0 mi ESE 5.8 mph - 0.01 in Rain Light Rain
7:15 AM 62.6 °F 62.6 °F 100% 29.90 in 10.0 mi ESE 6.9 mph - 0.01 in Rain Light Rain
7:35 AM 62.6 °F 62.6 °F 100% 29.90 in 10.0 mi ESE 5.8 mph - 0.03 in Rain Rain
7:55 AM 62.6 °F 62.6 °F 100% 29.90 in 5.0 mi SE 5.8 mph - 0.06 in Rain Heavy Rain
8:15 AM 62.6 °F 60.8 °F 94% 29.90 in 2.0 mi East 4.6 mph - 0.12 in Rain Heavy Rain
8:35 AM 62.6 °F 62.6 °F 100% 29.90 in 1.8 mi Calm Calm - 0.19 in Rain Heavy Rain
8:55 AM 62.6 °F 62.6 °F 100% 29.89 in 4.0 mi East 3.5 mph - 0.27 in Rain Rain
9:15 AM 62.6 °F 62.6 °F 100% 29.88 in 7.0 mi ESE 9.2 mph - 0.03 in Rain Rain
9:35 AM 62.6 °F 62.6 °F 100% 29.87 in 5.0 mi East 8.1 mph - 0.07 in Rain Rain
9:55 AM 62.6 °F 62.6 °F 100% 29.86 in 3.0 mi East 9.2 mph - 0.16 in Rain Rain
10:15 AM 62.6 °F 62.6 °F 100% 29.85 in 10.0 mi East 9.2 mph - 0.01 in Rain Rain
10:35 AM 62.6 °F 62.6 °F 100% 29.83 in 10.0 mi East 9.2 mph 17.3 mph 0.01 in   Light Drizzle
10:55 AM 62.6 °F 62.6 °F 100% 29.82 in 10.0 mi East 8.1 mph - 0.01 in Rain Light Rain
11:15 AM 64.4 °F 62.6 °F 94% 29.82 in 10.0 mi ESE 11.5 mph - N/A   Overcast
11:35 AM 64.4 °F 64.4 °F 100% 29.82 in 10.0 mi ESE 11.5 mph 17.3 mph 0.02 in   Light Drizzle
11:55 AM 64.4 °F 64.4 °F 100% 29.80 in 7.0 mi ESE 9.2 mph - 0.02 in   Light Drizzle
12:15 PM 64.4 °F 64.4 °F 100% 29.80 in 5.0 mi ESE 11.5 mph - 0.01 in Rain Light Rain
12:35 PM 64.4 °F 64.4 °F 100% 29.79 in 5.0 mi ESE 8.1 mph - 0.02 in   Light Drizzle
12:55 PM 64.4 °F 64.4 °F 100% 29.78 in 7.0 mi ESE 9.2 mph - 0.02 in Rain Light Rain
1:15 PM 64.4 °F 64.4 °F 100% 29.77 in 7.0 mi SE 8.1 mph - 0.04 in Rain Light Rain
1:35 PM 64.4 °F 64.4 °F 100% 29.77 in 10.0 mi SE 6.9 mph - 0.04 in Rain Light Rain
1:55 PM 64.4 °F 64.4 °F 100% 29.76 in 7.0 mi ESE 9.2 mph - 0.04 in   Drizzle
2:15 PM 64.4 °F 64.4 °F 100% 29.75 in 2.0 mi East 8.1 mph - 0.08 in Rain Heavy Rain
2:35 PM 64.4 °F 64.4 °F 100% 29.73 in 4.0 mi ESE 5.8 mph - 0.12 in Rain Rain
2:55 PM 66.2 °F 66.2 °F 100% 29.73 in 4.0 mi ESE 5.8 mph - 0.12 in   Overcast
3:15 PM 66.2 °F 66.2 °F 100% 29.71 in 5.0 mi SE 5.8 mph - N/A Rain Rain
3:35 PM 66.2 °F 66.2 °F 100% 29.71 in 5.0 mi ESE 5.8 mph - N/A   Overcast
3:55 PM 68.0 °F 68.0 °F 100% 29.70 in 3.0 mi SE 5.8 mph - 0.03 in Rain Heavy Rain
4:15 PM 68.0 °F 68.0 °F 100% 29.69 in 0.8 mi ESE 5.8 mph - 0.24 in Rain Heavy Rain
4:35 PM 68.0 °F 68.0 °F 100% 29.68 in 4.0 mi ESE 6.9 mph - 0.36 in Rain Rain
4:55 PM 68.0 °F 68.0 °F 100% 29.68 in 4.0 mi SE 9.2 mph - 0.38 in   Heavy Drizzle
5:15 PM 68.0 °F 68.0 °F 100% 29.67 in 4.0 mi SE 8.1 mph - 0.01 in   Light Drizzle
5:35 PM 68.0 °F 68.0 °F 100% 29.67 in 4.0 mi SE 9.2 mph - 0.01 in   Light Drizzle
5:55 PM 68.0 °F 68.0 °F 100% 29.66 in 2.5 mi SE 5.8 mph - 0.02 in Rain Rain
6:15 PM 68.0 °F 68.0 °F 100% 29.65 in 4.0 mi SE 6.9 mph - 0.03 in Rain Rain
6:35 PM 68.0 °F 68.0 °F 100% 29.65 in 7.0 mi SE 4.6 mph - 0.04 in Rain Rain
6:55 PM 68.0 °F 68.0 °F 100% 29.65 in 7.0 mi SE 3.5 mph - 0.04 in   Drizzle
7:15 PM 68.0 °F 68.0 °F 100% 29.65 in 5.0 mi Calm Calm - 0.02 in   Drizzle
7:35 PM 68.0 °F 68.0 °F 100% 29.64 in 10.0 mi Calm Calm - 0.02 in   Overcast
7:55 PM 68.0 °F 68.0 °F 100% 29.64 in 5.0 mi West 4.6 mph - 0.02 in Rain Light Rain
8:15 PM 68.0 °F 68.0 °F 100% 29.65 in 10.0 mi Calm Calm - N/A   Overcast
8:35 PM 68.0 °F 68.0 °F 100% 29.65 in 10.0 mi SW 3.5 mph - N/A   Overcast
8:55 PM 68.0 °F 68.0 °F 100% 29.66 in 10.0 mi West 6.9 mph - N/A   Overcast
9:15 PM 68.0 °F 68.0 °F 100% 29.67 in 7.0 mi West 12.7 mph 19.6 mph N/A   Overcast
9:35 PM 68.0 °F 68.0 °F 100% 29.67 in 5.0 mi West 9.2 mph 16.1 mph N/A   Overcast
9:55 PM 66.2 °F 66.2 °F 100% 29.68 in 10.0 mi West 11.5 mph 18.4 mph N/A   Overcast
10:15 PM 66.2 °F 64.4 °F 94% 29.68 in 10.0 mi West 9.2 mph - N/A   Overcast
10:35 PM 66.2 °F 64.4 °F 94% 29.68 in 7.0 mi West 9.2 mph - N/A   Overcast
10:55 PM 66.2 °F 64.4 °F 94% 29.67 in 7.0 mi West 11.5 mph - N/A   Overcast
11:15 PM 64.4 °F 64.4 °F 100% 29.68 in 10.0 mi West 8.1 mph - N/A   Overcast
11:35 PM 64.4 °F 64.4 °F 100% 29.68 in 10.0 mi WSW 10.4 mph - N/A   Overcast
11:55 PM 64.4 °F 64.4 °F 100% 29.68 in 10.0 mi WSW 8.1 mph - N/A   Overcast